Regional Weather Roundup
Issued by NWS

Home | Current Version | Previous Version | Graphics & Text | Print | Product List | Glossary On
Versions: 1 2 3 4 5 6 7 8 9 10 11 12 13 14 15 16 17 18 19 20 21 22 23 24 25 26 27 28 29 30 31 32 33 34 35 36 37 38 39 40 41 42 43 44 45 46 47 48 49 50
000
ASUS43 KDTX 040501
RWRMI
MICHIGAN HOURLY REGIONAL WEATHER ROUNDUP
NATIONAL WEATHER SERVICE DETROIT/PONTIAC MI
100 AM EDT MON MAY 04 2015

NOTE: "FAIR" INDICATES FEW OR NO CLOUDS BELOW 12,000 FEET WITH NO
SIGNIFICANT WEATHER AND/OR OBSTRUCTION TO VISIBILITY.

MIZ047>049-052>055-059>063-066>070-074>076-081>083-040600-
SOUTHEAST LOWER MICHIGAN

CITY           SKY/WX    TMP DP  RH WIND       PRES   REMARKS
ADRIAN         PTCLDY    65  47  52 SW8       30.04R
ALMA           PTCLDY    65  47  52 SW5       29.98R
ANN ARBOR      MOCLDY    62  46  55 S5        30.03R
BAD AXE        CLOUDY    65  44  47 S9        29.99R
CARO           CLOUDY    69  47  46 CALM      29.98R
DETROIT CITY   PTCLDY    63  47  55 S6        30.03R
DETROIT        CLOUDY    64  48  56 S6        30.04R
FLINT          MOCLDY    70  46  42 SW9       30.01R
GROSSE ILE     CLEAR     61  54  77 S7        30.02R
HILLSDALE      MOCLDY    67  47  48 S7        30.03R
HOWELL         PTCLDY    66  45  46 S8        30.01S

CITY           SKY/WX    TMP DP  RH WIND       PRES   REMARKS
JACKSON        CLOUDY    68  47  46 S10       30.02R
LAMBERTVILLE   PTCLDY    66  46  48 S5        30.04R
LANSING        PTCLDY    66  47  50 S8        30.00R
LAPEER         CLOUDY    67  45  45 S7        30.01R
MASON          MOCLDY    64  46  52 CALM      30.01R
MONROE         PTCLDY    63  48  59 S3        30.02R
PONTIAC        CLOUDY    68  45  43 S9        30.02R
PORT HOPE        N/A     68  43  40 VRB5      29.96R
PORT HURON     MOCLDY    59  46  63 S3        30.03R
TRI CITIES     MOCLDY    71  47  42 S13       29.98R
MIDLAND        CLOUDY    70  46  41 S8        29.95S
TROY           PTCLDY    69  44  39 SW6       30.04R
SAGINAW HB     MOCLDY    70  45  40 S15       29.98R
$$
MIZ043>046-050>051-056>058-064>065-071>073-077>080-040600-
SOUTHWEST LOWER MICHIGAN

CITY           SKY/WX    TMP DP  RH WIND       PRES   REMARKS
BATTLE CREEK   CLOUDY    67  47  48 S8        30.00R
BENTON HARBOR  LGT RAIN  60  55  83 SE6       29.96R
BIG RAPIDS     PTCLDY    64  44  48 CALM      29.95S
COLDWATER      PTCLDY    67  45  45 S7        30.01R
FREMONT        FAIR      59  44  56 S5        29.93F
HOLLAND        CLOUDY    61  51  70 S3        29.97R
GRAND RAPIDS   CLOUDY    64  48  56 S6        29.97S
IONIA          FAIR      66  46  48 SW6       29.98R
KALAMAZOO      CLOUDY    69  47  45 S10       29.99R
LUDINGTON      CLOUDY    64  51  61 S7        29.90F
MARSHALL       CLOUDY    67  47  50 S8        30.00R
MOUNT PLEASANT PTCLDY    66  46  47 S5        29.96R
MUSKEGON       CLOUDY    66  49  54 S12       29.93F
SOUTH HAVEN    LGT RAIN  65  52  63 S9        29.98R
$$
MIZ016>042-040600-
NORTHERN LOWER MICHIGAN

CITY           SKY/WX    TMP DP  RH WIND       PRES   REMARKS
ALPENA         MOCLDY    67  45  45 S7        29.91S
BEAVER ISLAND  HVY RAIN  52  50  93 CALM      29.90F
BELLAIRE       CLOUDY    67  49  52 SW3       29.90R
CADILLAC       CLOUDY    63  46  53 S3        29.94S
CHARLEVOIX     LGT RAIN  52  45  76 SW6       29.96R
FRANKFORT      CLOUDY    64  49  56 W7G17     29.92R
GAYLORD        CLOUDY    65  47  52 SW10      29.92R
GRAYLING       CLOUDY    64  45  50 S3        29.94S
HARBOR SPRINGS CLOUDY    62  47  57 W16G23    29.93R
HOUGHTON LAKE  MOCLDY    62  47  57 SW5       29.94S
MANISTEE       CLOUDY    64  50  59 S7        29.92F
OSCODA         PTCLDY    64  47  54 S7        29.93S
PELLSTON       CLOUDY    58  46  64 NW13      29.94R
ROGERS CITY    CLOUDY    68  47  47 SW7       29.90R
TRAVERSE CITY  CLOUDY    68  50  52 VRB3      29.90S
$$
MIZ007>008-015-040600-
EASTERN UPPER MICHIGAN

CITY           SKY/WX    TMP DP  RH WIND       PRES   REMARKS
KINROSS        CLOUDY    57  55  94 SW9       29.90R
MACKINAC ISLAN CLOUDY    54  53  96 W8G16     29.92R
NEWBERRY       LGT RAIN  54  53  96 S14       29.84F
S. S. MARIE    CLOUDY    58  53  84 VRB5      29.86F
MUNISING         N/A     60  55  83 SW9       29.83S
$$
MIZ004>006-011>014-085-040600-
CENTRAL UPPER MICHIGAN

CITY           SKY/WX    TMP DP  RH WIND       PRES   REMARKS
MANISTIQUE     LGT RAIN  48  47  96 SE5       29.84F
ESCANABA       CLOUDY    57  54  88 SW15      29.85S
MENOMINEE      CLOUDY    59  55  88 CALM      29.86F
SAWYER-GWINN   RAIN      57  55  92 W9        29.89R
$$
MIZ001>003-009>011-084-040600-
WESTERN UPPER MICHIGAN

CITY           SKY/WX    TMP DP  RH WIND       PRES   REMARKS
IRON MOUNTAIN  LGT RAIN  58  52  80 N7        29.88S
HOUGHTON       CLOUDY    57  38  48 W9        29.88R
COPPER HARBOR    N/A     63  24  22 VRB5      29.85R
IRONWOOD       CLOUDY    52  46  82 W3        29.89R
$$

ABBREVIATIONS USED IN REMARKS
   TC - TEMPERATURE IN CELSIUS
  WCI - WIND CHILL INDEX
   HX - HEAT INDEX
  VSB - VISIBILITY



USA.gov is the U.S. government's official web portal to all federal, state and local government web resources and services.